Location: Unspecified
(50.7693°N, 0.0000°E)
Time: 17:40:39
(UTC+00:00)

Transit 2A - Pass Details

Date: 25 June 2019
Orbit: 597 x 962 km, 66.7° (Epoch: 24 August)

Event Time Altitude Azimuth Distance (km) Brightness Sun altitude
Rises 05:41:14 0° 317° (NW) 3,562 9.2 14.7°
Reaches altitude 10° 05:44:25 10° 331° (NNW) 2,567 8.7 15.2°
Maximum altitude 05:49:04 23° 23° (NNE) 1,725 8.6 15.9°
Drops below altitude 10° 05:53:24 10° 75° (ENE) 2,372 11.4 16.5°
Sets 05:56:12 0° 90° (E) 3,230 10.7 16.9°
